Juliana Airport, Sint Maarten

5:56 PM AST on May 26, 2017 (GMT -0400)
Princess Juliana International

Weather History for TNCM - August, 2013

Change the Weather History Date:

Wednesday, August 28, 2013

  Actual Average Record
Temperature  
Mean Temperature 85 °F -  
Max Temperature 89 °F 87 °F 89 °F (1996)
Min Temperature 81 °F 78 °F 75 °F (2007)
Cooling Degree Days 20    
Growing Degree Days 35 (Base 50)    
Moisture  
Dew Point 75 °F    
Average Humidity 71    
Maximum Humidity 84    
Minimum Humidity 49    
Precipitation  
Precipitation 0.02 in 0.17 in - ()
Sea Level Pressure  
Sea Level Pressure 29.99 in    
Wind  
Wind Speed 10 mph ()    
Max Wind Speed 25 mph    
Max Gust Speed -    
Visibility 8.7 miles    
Events Rain    
Averages and records for this station are not official NWS values.
T = Trace of Precipitation, MM = Missing Value Source: Averaged Metar Reports

Daily Weather History Graph

Daily Weather History Graph

Search for Another Location

Airport or City:

Trip Planner

Search our weather history database for the weather conditions in past years. The results will help you decide how hot, cold, wet, or windy it might be!

Date:

Astronomy

Aug. 28, 2013 Rise Set
Actual Time 5:57 AM AST 6:29 PM AST
Civil Twilight 5:35 AM AST 6:51 PM AST
Nautical Twilight 5:09 AM AST 7:17 PM AST
Astronomical Twilight 4:43 AM AST 7:43 PM AST
Moon No Moon Rise 12:39 PM AST (8/28)
Length of Visible Light 13h 16m
Length of Day
12h 31m
Waning Gibbous, 47% of the Moon is Illuminated
Aug 28
Waning Gibbous
Sep 5
New
Sep 12
First Quarter
Sep 19
Full
Sep 26
Last Quarter

Hourly Weather History & Observations

Time (AST) Temp. Heat Index Dew Point Humidity Pressure Visibility Wind Dir Wind Speed Gust Speed Precip Events Conditions
12:00 AM 82.4 °F 89.5 °F 75.2 °F 79% 29.98 in 6.2 mi ENE 6.9 mph - N/A   Partly Cloudy
1:00 AM 82.4 °F 89.5 °F 75.2 °F 79% 29.98 in 6.2 mi East 8.1 mph - N/A   Partly Cloudy
2:00 AM 82 °F - 76 °F 76% 29.97 in 16 mi East 4.6 mph - - Rain Light Rain Showers
2:00 AM 82.4 °F 89.5 °F 75.2 °F 79% 29.98 in 6.2 mi East 5.8 mph - N/A Rain Light Rain Showers
3:00 AM 80.6 °F 86.2 °F 75.2 °F 84% 29.95 in 6.2 mi ENE 11.5 mph - N/A Rain Light Rain Showers
4:00 AM 82.4 °F 89.5 °F 75.2 °F 79% 29.95 in 6.2 mi ENE 8.1 mph - N/A   Partly Cloudy
5:00 AM 82 °F - 75 °F 73% 29.97 in 16 mi East 20.1 mph - -   Scattered Clouds
5:00 AM 82.4 °F 89.5 °F 75.2 °F 79% 29.95 in 6.2 mi East 6.9 mph - N/A Rain Light Rain Showers
6:00 AM 82.4 °F 89.5 °F 75.2 °F 79% 29.98 in 6.2 mi East 8.1 mph - N/A   Scattered Clouds
7:00 AM 84.2 °F 92.3 °F 75.2 °F 74% 29.98 in 6.2 mi East 9.2 mph - N/A   Partly Cloudy
8:00 AM 84 °F - 76 °F 70% 30.02 in 16 mi East 20.1 mph - -   Mostly Cloudy
8:00 AM 84.2 °F 92.3 °F 75.2 °F 74% 30.01 in 6.2 mi East 10.4 mph - N/A   Mostly Cloudy
9:00 AM 86.0 °F 95.1 °F 75.2 °F 70% 30.01 in 6.2 mi East 11.5 mph - N/A   Scattered Clouds
10:00 AM 87.8 °F 97.6 °F 75.2 °F 66% 30.04 in 6.2 mi East 10.4 mph - N/A   Mostly Cloudy
11:00 AM 87 °F - 75 °F 59% 30.03 in 22 mi ESE 10.4 mph - -   Partly Cloudy
11:00 AM 87.8 °F 95.6 °F 73.4 °F 62% 30.01 in 6.2 mi East 13.8 mph - N/A   Scattered Clouds
12:00 PM 87.8 °F 97.6 °F 75.2 °F 66% 30.01 in 6.2 mi East 13.8 mph - N/A   Scattered Clouds
1:00 PM 87.8 °F 97.6 °F 75.2 °F 66% 30.01 in 6.2 mi East 13.8 mph - N/A   Scattered Clouds
2:00 PM 89 °F - 72 °F 49% 29.99 in 19 mi East 24.6 mph - -   Scattered Clouds
2:00 PM 89.6 °F 96.2 °F 71.6 °F 55% 29.98 in 6.2 mi East 12.7 mph - N/A   Partly Cloudy
3:00 PM 87.8 °F 97.6 °F 75.2 °F 66% 29.95 in 6.2 mi East 12.7 mph - N/A   Partly Cloudy
4:00 PM 87.8 °F 97.6 °F 75.2 °F 66% 29.95 in 6.2 mi East 10.4 mph - N/A   Scattered Clouds
5:00 PM 87 °F - 74 °F 58% 29.97 in 19 mi East 13.8 mph - -   Partly Cloudy
5:00 PM 86.0 °F 95.1 °F 75.2 °F 70% 29.98 in 6.2 mi East 13.8 mph - N/A   Scattered Clouds
6:00 PM 84.2 °F 92.3 °F 75.2 °F 74% 29.98 in 6.2 mi ESE 11.5 mph - N/A   Mostly Cloudy
8:00 PM 84 °F - 74 °F 65% 30.02 in 19 mi East 12.7 mph - -   Partly Cloudy
8:00 PM 84.2 °F 90.9 °F 73.4 °F 70% 30.01 in 6.2 mi East 12.7 mph - N/A   Scattered Clouds
9:00 PM 82.4 °F 88.2 °F 73.4 °F 74% 30.04 in 6.2 mi East 12.7 mph - N/A   Scattered Clouds
10:00 PM 82.4 °F 88.2 °F 73.4 °F 74% 30.04 in 6.2 mi East 9.2 mph - N/A   Partly Cloudy
11:00 PM 83 °F - 75 °F 72% 30.05 in 12 mi East 11.5 mph - - Rain Light Rain Showers
11:00 PM 82.4 °F 89.5 °F 75.2 °F 79% 30.04 in 6.2 mi East 10.4 mph - N/A   Scattered Clouds